GPOSH EGCC-LSZR

Flight info

Callsign GPOSH
Flight time 1h 29m
Altitude 44999
Route LISTO UL612 HON L10 DTY L10 DVR UL9 KONAN UL607 KOK M150 GEBDA Y173 EDISA
Aircraft C750/M-SBDE3FGHRWXY/S

Departure

Time 2026-04-18 09:14
Airport Manchester Airport (EGCC)

Arrival

Time 2026-04-18 10:43
Airport Sankt Gallen Altenrhein Airport (LSZR)
Time Latitude Longitude Altitude Speed Heading
2026-04-18 08:57 53.35601 -2.28087 241 ft 0 kts 227°
2026-04-18 09:10 53.35598 -2.28092 241 ft 3 kts 227°
2026-04-18 09:10 53.35563 -2.28128 241 ft 7 kts 194°
2026-04-18 09:11 53.35505 -2.28139 240 ft 10 kts 185°
2026-04-18 09:11 53.35424 -2.28160 238 ft 14 kts 188°
2026-04-18 09:11 53.35324 -2.28178 235 ft 13 kts 186°
2026-04-18 09:11 53.35254 -2.28191 233 ft 6 kts 186°
2026-04-18 09:12 53.35211 -2.28199 232 ft 7 kts 186°
2026-04-18 09:12 53.35139 -2.28198 229 ft 13 kts 163°
2026-04-18 09:12 53.35056 -2.28100 227 ft 14 kts 140°
2026-04-18 09:12 53.34986 -2.28004 231 ft 11 kts 141°
2026-04-18 09:13 53.34922 -2.27918 232 ft 13 kts 142°
2026-04-18 09:13 53.34853 -2.27831 232 ft 12 kts 151°
2026-04-18 09:13 53.34769 -2.27817 228 ft 11 kts 209°
2026-04-18 09:13 53.34736 -2.27881 228 ft 7 kts 231°
2026-04-18 09:14 53.34555 -2.28257 226 ft 95 kts 231°
2026-04-18 09:14 53.33995 -2.29381 452 ft 137 kts 231°
2026-04-18 09:14 53.33331 -2.30604 1098 ft 149 kts 234°
2026-04-18 09:14 53.32690 -2.32065 1750 ft 166 kts 237°
2026-04-18 09:15 53.31929 -2.33600 2406 ft 180 kts 227°
2026-04-18 09:15 53.30733 -2.34555 2945 ft 208 kts 197°
2026-04-18 09:15 53.29167 -2.34232 3249 ft 252 kts 162°
2026-04-18 09:15 53.27537 -2.32845 4004 ft 268 kts 154°
2026-04-18 09:16 53.25907 -2.31334 5163 ft 269 kts 155°
2026-04-18 09:16 53.24218 -2.29890 6195 ft 275 kts 156°
2026-04-18 09:16 53.22698 -2.27844 7061 ft 288 kts 134°
2026-04-18 09:16 53.21281 -2.25493 8213 ft 287 kts 141°
2026-04-18 09:17 53.19597 -2.23693 9238 ft 289 kts 155°
2026-04-18 09:17 53.17782 -2.22240 10309 ft 291 kts 160°
2026-04-18 09:17 53.15847 -2.20946 10824 ft 312 kts 162°
2026-04-18 09:17 53.13743 -2.19549 11055 ft 340 kts 161°
2026-04-18 09:18 53.11488 -2.17955 11437 ft 358 kts 160°
2026-04-18 09:18 53.09196 -2.16321 12358 ft 359 kts 161°
2026-04-18 09:18 53.06870 -2.14724 13119 ft 365 kts 161°
2026-04-18 09:18 53.04505 -2.13116 13928 ft 369 kts 161°
2026-04-18 09:19 53.02115 -2.11462 14641 ft 374 kts 162°
2026-04-18 09:19 52.99704 -2.09787 15350 ft 377 kts 162°
2026-04-18 09:19 52.97269 -2.08111 16066 ft 381 kts 163°
2026-04-18 09:19 52.94808 -2.06426 16797 ft 384 kts 163°
2026-04-18 09:20 52.92352 -2.04740 17541 ft 388 kts 164°
2026-04-18 09:20 52.89847 -2.03019 18314 ft 392 kts 164°
2026-04-18 09:20 52.87316 -2.01284 19023 ft 395 kts 165°
2026-04-18 09:20 52.84768 -1.99542 19743 ft 398 kts 165°
2026-04-18 09:21 52.82201 -1.97788 20487 ft 400 kts 165°
2026-04-18 09:21 52.79577 -1.96304 21054 ft 395 kts 176°
2026-04-18 09:21 52.76881 -1.95272 21762 ft 401 kts 172°
2026-04-18 09:21 52.74213 -1.93792 22505 ft 407 kts 168°
2026-04-18 09:22 52.71551 -1.92136 23169 ft 412 kts 167°
2026-04-18 09:22 52.68866 -1.90405 23848 ft 416 kts 166°
2026-04-18 09:22 52.66167 -1.88642 24422 ft 419 kts 166°
2026-04-18 09:22 52.63442 -1.86858 24992 ft 422 kts 166°
2026-04-18 09:23 52.60697 -1.85064 25570 ft 426 kts 166°
2026-04-18 09:23 52.57970 -1.83288 26135 ft 429 kts 166°
2026-04-18 09:23 52.55181 -1.81477 26710 ft 432 kts 166°
2026-04-18 09:23 52.52366 -1.79657 27275 ft 436 kts 166°
2026-04-18 09:24 52.49530 -1.77829 27862 ft 440 kts 166°
2026-04-18 09:24 52.46667 -1.75990 28433 ft 444 kts 166°
2026-04-18 09:24 52.43777 -1.74137 29009 ft 448 kts 166°
2026-04-18 09:24 52.40862 -1.72261 29563 ft 453 kts 165°
2026-04-18 09:25 52.38011 -1.69916 30000 ft 470 kts 154°
2026-04-18 09:25 52.35557 -1.66215 30480 ft 492 kts 135°
2026-04-18 09:25 52.33744 -1.61395 31002 ft 502 kts 123°
2026-04-18 09:25 52.32238 -1.56242 31610 ft 504 kts 119°
2026-04-18 09:26 52.30830 -1.51016 32309 ft 501 kts 119°
2026-04-18 09:26 52.29292 -1.45913 32953 ft 497 kts 123°
2026-04-18 09:26 52.27592 -1.41029 33646 ft 494 kts 126°
2026-04-18 09:26 52.25912 -1.36118 34310 ft 494 kts 123°
2026-04-18 09:27 52.24367 -1.31105 34880 ft 495 kts 121°
2026-04-18 09:27 52.22834 -1.26092 35445 ft 493 kts 122°
2026-04-18 09:27 52.21214 -1.21169 36012 ft 491 kts 124°
2026-04-18 09:27 52.19570 -1.16277 36579 ft 491 kts 123°
2026-04-18 09:28 52.17957 -1.11381 37133 ft 490 kts 124°
2026-04-18 09:28 52.16120 -1.06732 37675 ft 487 kts 129°
2026-04-18 09:28 52.14219 -1.02284 38297 ft 485 kts 130°
2026-04-18 09:28 52.12275 -0.97793 38892 ft 485 kts 129°
2026-04-18 09:29 52.10369 -0.93248 39374 ft 485 kts 128°
2026-04-18 09:29 52.08488 -0.88714 39880 ft 484 kts 128°
2026-04-18 09:29 52.06625 -0.84170 40361 ft 485 kts 125°
2026-04-18 09:29 52.05781 -0.78846 39788 ft 511 kts 76°
2026-04-18 09:30 52.07877 -0.74349 34426 ft 499 kts 52°
2026-04-18 09:30 52.09695 -0.70051 24676 ft 417 kts 60°
2026-04-18 09:30 52.11444 -0.66361 14967 ft 456 kts 50°
2026-04-18 09:30 52.13353 -0.62142 12254 ft 447 kts 54°
2026-04-18 09:31 52.14563 -0.57893 13204 ft 382 kts 75°
2026-04-18 09:31 52.14703 -0.53938 14006 ft 336 kts 100°
2026-04-18 09:31 52.13922 -0.50406 13842 ft 341 kts 128°
2026-04-18 09:31 52.12241 -0.47547 13819 ft 360 kts 146°
2026-04-18 09:32 52.10068 -0.45434 14231 ft 363 kts 161°
2026-04-18 09:32 52.07768 -0.43800 15075 ft 361 kts 164°
2026-04-18 09:32 52.05426 -0.42234 15760 ft 366 kts 165°
2026-04-18 09:32 52.03056 -0.40667 16505 ft 369 kts 165°
2026-04-18 09:33 52.00664 -0.39081 17265 ft 373 kts 165°
2026-04-18 09:33 51.98244 -0.37470 18043 ft 378 kts 165°
2026-04-18 09:33 51.95796 -0.35831 18791 ft 382 kts 165°
2026-04-18 09:33 51.93326 -0.34171 19506 ft 386 kts 165°
2026-04-18 09:34 51.90867 -0.32515 20212 ft 390 kts 165°
2026-04-18 09:34 51.88350 -0.30817 20931 ft 394 kts 165°
2026-04-18 09:34 51.85806 -0.29101 21634 ft 398 kts 165°
2026-04-18 09:34 51.83234 -0.27364 22332 ft 402 kts 165°
2026-04-18 09:35 51.80753 -0.25074 22821 ft 426 kts 148°
2026-04-18 09:35 51.78777 -0.21395 23523 ft 442 kts 131°
2026-04-18 09:35 51.77191 -0.17093 24140 ft 450 kts 124°
2026-04-18 09:35 51.75708 -0.12605 24704 ft 454 kts 124°
2026-04-18 09:36 51.74203 -0.08090 25218 ft 457 kts 125°
2026-04-18 09:36 51.72485 -0.03775 25791 ft 456 kts 131°
2026-04-18 09:36 51.70606 0.00351 26374 ft 458 kts 133°
2026-04-18 09:36 51.68735 0.04562 26975 ft 466 kts 130°
2026-04-18 09:37 51.67015 0.09034 27559 ft 472 kts 126°
2026-04-18 09:37 51.65319 0.13581 28137 ft 475 kts 128°
2026-04-18 09:37 51.63503 0.18039 28711 ft 478 kts 130°
2026-04-18 09:37 51.61663 0.22514 29270 ft 483 kts 128°
2026-04-18 09:38 51.59879 0.27144 29834 ft 488 kts 127°
2026-04-18 09:38 51.58125 0.31768 30371 ft 492 kts 127°
2026-04-18 09:38 51.56283 0.36419 30854 ft 494 kts 128°
2026-04-18 09:38 51.54405 0.41064 31373 ft 496 kts 128°
2026-04-18 09:39 51.52563 0.45729 32148 ft 493 kts 127°
2026-04-18 09:39 51.50747 0.50390 32888 ft 491 kts 127°
2026-04-18 09:39 51.48922 0.54998 33615 ft 489 kts 128°
2026-04-18 09:39 51.47081 0.59579 34319 ft 487 kts 128°
2026-04-18 09:40 51.45257 0.64146 34905 ft 486 kts 128°
2026-04-18 09:40 51.43442 0.68723 35454 ft 486 kts 128°
2026-04-18 09:40 51.41622 0.73292 36028 ft 486 kts 128°
2026-04-18 09:40 51.39792 0.77846 36607 ft 486 kts 128°
2026-04-18 09:41 51.37962 0.82397 37204 ft 486 kts 128°
2026-04-18 09:41 51.36139 0.86944 37811 ft 485 kts 127°
2026-04-18 09:41 51.34315 0.91483 38420 ft 485 kts 127°
2026-04-18 09:41 51.32485 0.96018 39020 ft 485 kts 127°
2026-04-18 09:42 51.30656 1.00543 39527 ft 484 kts 127°
2026-04-18 09:42 51.28827 1.05064 40050 ft 483 kts 127°
2026-04-18 09:42 51.27004 1.09565 40579 ft 482 kts 127°
2026-04-18 09:42 51.25182 1.14052 41104 ft 481 kts 127°
2026-04-18 09:43 51.23363 1.18523 41629 ft 480 kts 127°
2026-04-18 09:43 51.21545 1.22983 42150 ft 479 kts 127°
2026-04-18 09:43 51.19727 1.27439 42661 ft 479 kts 126°
2026-04-18 09:43 51.17997 1.31900 43117 ft 481 kts 121°
2026-04-18 09:44 51.16641 1.36804 43583 ft 484 kts 111°
2026-04-18 09:44 51.15789 1.41999 44088 ft 486 kts 102°
2026-04-18 09:44 51.15418 1.47359 44598 ft 486 kts 95°
2026-04-18 09:44 51.15318 1.52736 45104 ft 485 kts 92°
2026-04-18 09:45 51.15275 1.58130 45226 ft 492 kts 93°
2026-04-18 09:45 51.15036 1.63610 45232 ft 499 kts 97°
2026-04-18 09:45 51.14293 1.74814 45246 ft 516 kts 95°
2026-04-18 09:46 51.13838 1.86379 45244 ft 529 kts 96°
2026-04-18 09:46 51.13145 1.98036 45245 ft 533 kts 96°
2026-04-18 09:47 51.12581 2.09797 45241 ft 532 kts 96°
2026-04-18 09:47 51.11915 2.21535 45234 ft 533 kts 97°
2026-04-18 09:48 51.11288 2.33304 45226 ft 533 kts 96°
2026-04-18 09:48 51.10622 2.45064 45224 ft 534 kts 97°
2026-04-18 09:49 51.09954 2.56852 45229 ft 535 kts 96°
2026-04-18 09:49 51.08464 2.68382 45220 ft 530 kts 112°
2026-04-18 09:50 51.05228 2.78791 45237 ft 528 kts 123°
2026-04-18 09:50 51.01465 2.88812 45231 ft 530 kts 121°
2026-04-18 09:51 50.98182 2.99307 45230 ft 531 kts 119°
2026-04-18 09:51 50.94618 3.09541 45224 ft 531 kts 121°
2026-04-18 09:52 50.91180 3.19914 45216 ft 531 kts 119°
2026-04-18 09:52 50.87666 3.30213 45211 ft 531 kts 121°
2026-04-18 09:53 50.84168 3.40503 45206 ft 531 kts 120°
2026-04-18 09:53 50.81237 3.49129 45202 ft 531 kts 121°
2026-04-18 09:54 50.77724 3.59312 45205 ft 531 kts 120°
2026-04-18 09:54 50.74210 3.69573 45208 ft 531 kts 120°
2026-04-18 09:55 50.70663 3.79800 45209 ft 530 kts 120°
2026-04-18 09:55 50.67132 3.90003 45211 ft 530 kts 120°
2026-04-18 09:56 50.63602 4.00121 45214 ft 529 kts 120°
2026-04-18 09:56 50.60054 4.10273 45209 ft 529 kts 120°
2026-04-18 09:57 50.56494 4.20406 45207 ft 528 kts 120°
2026-04-18 09:57 50.52937 4.30497 45202 ft 527 kts 120°
2026-04-18 09:58 50.49367 4.40584 45205 ft 529 kts 120°
2026-04-18 09:58 50.45787 4.50660 45204 ft 527 kts 120°
2026-04-18 09:59 50.42229 4.60633 45203 ft 526 kts 120°
2026-04-18 10:00 50.36850 4.75639 45206 ft 526 kts 121°
2026-04-18 10:00 50.33255 4.85617 45208 ft 525 kts 121°
2026-04-18 10:01 50.29655 4.95571 45206 ft 525 kts 121°
2026-04-18 10:01 50.26054 5.05490 45214 ft 524 kts 121°
2026-04-18 10:02 50.22441 5.15405 45209 ft 524 kts 121°
2026-04-18 10:02 50.18825 5.25287 45215 ft 524 kts 121°
2026-04-18 10:03 50.15222 5.35100 45204 ft 524 kts 121°
2026-04-18 10:03 50.11584 5.44966 45199 ft 524 kts 121°
2026-04-18 10:04 50.07932 5.54835 45197 ft 525 kts 121°
2026-04-18 10:04 50.04276 5.64676 45187 ft 525 kts 121°
2026-04-18 10:05 50.00618 5.74487 45185 ft 524 kts 121°
2026-04-18 10:05 49.96967 5.84239 45186 ft 524 kts 121°
2026-04-18 10:06 49.93290 5.94026 45188 ft 524 kts 121°
2026-04-18 10:06 49.89604 6.03798 45199 ft 524 kts 122°
2026-04-18 10:07 49.85927 6.13566 45190 ft 524 kts 120°
2026-04-18 10:07 49.82536 6.23600 45198 ft 526 kts 118°
2026-04-18 10:08 49.79123 6.33621 45194 ft 525 kts 119°
2026-04-18 10:08 49.75726 6.43563 45190 ft 526 kts 119°
2026-04-18 10:09 49.72309 6.53543 45183 ft 526 kts 119°
2026-04-18 10:09 49.68878 6.63540 45179 ft 526 kts 119°
2026-04-18 10:10 49.65443 6.73530 45169 ft 527 kts 119°
2026-04-18 10:10 49.61993 6.83501 45166 ft 527 kts 119°
2026-04-18 10:11 49.58535 6.93481 45168 ft 528 kts 120°
2026-04-18 10:11 49.55060 7.03447 45171 ft 528 kts 120°
2026-04-18 10:12 49.51585 7.13395 45181 ft 528 kts 120°
2026-04-18 10:12 49.48096 7.23332 45167 ft 528 kts 120°
2026-04-18 10:13 49.44600 7.33257 45170 ft 528 kts 120°
2026-04-18 10:13 49.41093 7.43165 45174 ft 528 kts 120°
2026-04-18 10:14 49.37581 7.53059 45170 ft 528 kts 120°
2026-04-18 10:14 49.34057 7.62944 45171 ft 528 kts 120°
2026-04-18 10:15 49.30529 7.72805 45170 ft 528 kts 120°
2026-04-18 10:15 49.27009 7.82605 45170 ft 528 kts 120°
2026-04-18 10:16 49.23453 7.92465 45168 ft 528 kts 120°
2026-04-18 10:16 49.19899 8.02282 45167 ft 527 kts 120°
2026-04-18 10:16 49.18132 8.07154 44761 ft 519 kts 120°
2026-04-18 10:17 49.16395 8.11931 44038 ft 508 kts 120°
2026-04-18 10:17 49.14717 8.16535 43375 ft 497 kts 120°
2026-04-18 10:17 49.12912 8.21034 42703 ft 485 kts 127°
2026-04-18 10:17 49.10799 8.24871 42098 ft 472 kts 136°
2026-04-18 10:18 49.08351 8.28100 41512 ft 461 kts 146°
2026-04-18 10:18 49.05633 8.30634 40936 ft 454 kts 156°
2026-04-18 10:18 49.02719 8.32421 40397 ft 449 kts 165°
2026-04-18 10:18 48.99717 8.33789 39828 ft 453 kts 167°
2026-04-18 10:19 48.96653 8.35067 39158 ft 460 kts 166°
2026-04-18 10:19 48.93581 8.36515 38481 ft 462 kts 166°
2026-04-18 10:19 48.90545 8.38107 37883 ft 463 kts 162°
2026-04-18 10:19 48.87600 8.40155 37264 ft 468 kts 155°
2026-04-18 10:20 48.84782 8.42683 36650 ft 472 kts 150°
2026-04-18 10:20 48.82020 8.45384 36035 ft 473 kts 149°
2026-04-18 10:20 48.79231 8.47925 35410 ft 474 kts 153°
2026-04-18 10:20 48.76307 8.50221 34790 ft 474 kts 156°
2026-04-18 10:21 48.73376 8.52521 34164 ft 476 kts 154°
2026-04-18 10:21 48.70500 8.55010 33502 ft 477 kts 152°
2026-04-18 10:21 48.67626 8.57542 32868 ft 478 kts 153°
2026-04-18 10:21 48.64703 8.59964 32231 ft 480 kts 154°
2026-04-18 10:22 48.61752 8.62347 31592 ft 482 kts 154°
2026-04-18 10:22 48.58812 8.64802 30957 ft 484 kts 153°
2026-04-18 10:22 48.55872 8.67310 30320 ft 485 kts 153°
2026-04-18 10:22 48.52934 8.69770 29633 ft 478 kts 153°
2026-04-18 10:23 48.50025 8.72156 29006 ft 473 kts 154°
2026-04-18 10:23 48.47153 8.74527 28380 ft 468 kts 153°
2026-04-18 10:23 48.44318 8.76898 27767 ft 464 kts 153°
2026-04-18 10:23 48.41502 8.79244 27160 ft 460 kts 153°
2026-04-18 10:24 48.38710 8.81546 26562 ft 456 kts 153°
2026-04-18 10:24 48.35971 8.83800 25981 ft 452 kts 153°
2026-04-18 10:24 48.33230 8.86065 25398 ft 448 kts 153°
2026-04-18 10:24 48.30499 8.88323 24819 ft 445 kts 153°
2026-04-18 10:25 48.27796 8.90548 24245 ft 441 kts 153°
2026-04-18 10:25 48.25114 8.92751 23663 ft 438 kts 153°
2026-04-18 10:25 48.22450 8.94939 23063 ft 433 kts 153°
2026-04-18 10:25 48.19815 8.97103 22501 ft 430 kts 153°
2026-04-18 10:26 48.17196 8.99249 21945 ft 428 kts 153°
2026-04-18 10:26 48.14595 9.01378 21391 ft 424 kts 153°
2026-04-18 10:26 48.12015 9.03487 20833 ft 421 kts 153°
2026-04-18 10:26 48.09448 9.05583 20291 ft 417 kts 152°
2026-04-18 10:27 48.06940 9.07629 19761 ft 414 kts 153°
2026-04-18 10:27 48.04418 9.09684 19225 ft 411 kts 153°
2026-04-18 10:27 48.01914 9.11724 18694 ft 408 kts 152°
2026-04-18 10:27 47.99509 9.13680 18146 ft 405 kts 152°
2026-04-18 10:28 47.97045 9.15679 17622 ft 401 kts 152°
2026-04-18 10:28 47.94602 9.17659 17101 ft 398 kts 152°
2026-04-18 10:28 47.92184 9.19620 16598 ft 394 kts 152°
2026-04-18 10:28 47.89782 9.21565 16085 ft 391 kts 152°
2026-04-18 10:29 47.87402 9.23490 15575 ft 387 kts 152°
2026-04-18 10:29 47.85041 9.25397 15080 ft 384 kts 152°
2026-04-18 10:29 47.82696 9.27291 14591 ft 382 kts 152°
2026-04-18 10:29 47.80383 9.29201 14095 ft 378 kts 150°
2026-04-18 10:30 47.78454 9.31816 13498 ft 374 kts 128°
2026-04-18 10:30 47.76961 9.34980 13101 ft 375 kts 124°
2026-04-18 10:30 47.75499 9.38161 12633 ft 371 kts 124°
2026-04-18 10:30 47.74026 9.41293 12133 ft 367 kts 125°
2026-04-18 10:31 47.72572 9.44344 11664 ft 364 kts 125°
2026-04-18 10:31 47.71125 9.47403 11013 ft 357 kts 125°
2026-04-18 10:31 47.69721 9.50307 10536 ft 335 kts 128°
2026-04-18 10:31 47.68016 9.52471 10057 ft 315 kts 151°
2026-04-18 10:32 47.66017 9.53514 9664 ft 297 kts 171°
2026-04-18 10:32 47.64000 9.53600 9359 ft 284 kts 183°
2026-04-18 10:32 47.62030 9.53501 9042 ft 284 kts 183°
2026-04-18 10:32 47.60042 9.53413 8639 ft 285 kts 183°
2026-04-18 10:33 47.58069 9.53327 8247 ft 280 kts 182°
2026-04-18 10:33 47.56136 9.53137 7852 ft 277 kts 191°
2026-04-18 10:33 47.54446 9.51924 7452 ft 274 kts 219°
2026-04-18 10:33 47.53278 9.49745 7107 ft 271 kts 244°
2026-04-18 10:34 47.52606 9.47148 6821 ft 270 kts 250°
2026-04-18 10:34 47.51979 9.44512 6472 ft 272 kts 250°
2026-04-18 10:34 47.51328 9.41874 6085 ft 274 kts 249°
2026-04-18 10:34 47.50702 9.39266 5705 ft 262 kts 253°
2026-04-18 10:35 47.50667 9.36653 5308 ft 250 kts 279°
2026-04-18 10:35 47.50963 9.34188 5039 ft 238 kts 280°
2026-04-18 10:35 47.51296 9.31913 4995 ft 212 kts 282°
2026-04-18 10:35 47.51665 9.29938 4890 ft 190 kts 301°
2026-04-18 10:36 47.52585 9.28678 4825 ft 171 kts 323°
2026-04-18 10:36 47.53490 9.27637 4918 ft 160 kts 321°
2026-04-18 10:36 47.54295 9.26554 4942 ft 159 kts 311°
2026-04-18 10:36 47.54662 9.25069 4960 ft 155 kts 268°
2026-04-18 10:37 47.54156 9.23733 4886 ft 151 kts 215°
2026-04-18 10:37 47.53136 9.23755 4524 ft 165 kts 148°
2026-04-18 10:37 47.52517 9.25222 4131 ft 171 kts 108°
2026-04-18 10:37 47.52197 9.26855 4060 ft 161 kts 105°
2026-04-18 10:38 47.51901 9.28419 3954 ft 153 kts 105°
2026-04-18 10:38 47.51612 9.29838 4045 ft 136 kts 105°
2026-04-18 10:38 47.51363 9.31136 4045 ft 130 kts 104°
2026-04-18 10:38 47.51210 9.31998 4079 ft 132 kts 103°
2026-04-18 10:39 47.51001 9.33331 4127 ft 134 kts 102°
2026-04-18 10:39 47.50812 9.34703 4135 ft 137 kts 100°
2026-04-18 10:39 47.50625 9.36097 4175 ft 138 kts 99°
2026-04-18 10:39 47.50459 9.37511 4148 ft 140 kts 99°
2026-04-18 10:40 47.50292 9.38896 4074 ft 134 kts 99°
2026-04-18 10:40 47.50151 9.40239 3985 ft 133 kts 97°
2026-04-18 10:40 47.50022 9.41613 3830 ft 136 kts 96°
2026-04-18 10:40 47.49898 9.43023 3711 ft 138 kts 97°
2026-04-18 10:41 47.49732 9.44446 3500 ft 142 kts 99°
2026-04-18 10:41 47.49569 9.45899 3303 ft 143 kts 97°
2026-04-18 10:41 47.49426 9.47358 3072 ft 144 kts 97°
2026-04-18 10:41 47.49270 9.48820 2700 ft 144 kts 98°
2026-04-18 10:42 47.49117 9.50234 2336 ft 138 kts 97°
2026-04-18 10:42 47.48980 9.51595 2023 ft 130 kts 97°
2026-04-18 10:42 47.48841 9.52875 1791 ft 123 kts 97°
2026-04-18 10:42 47.48711 9.54097 1562 ft 118 kts 98°
2026-04-18 10:43 47.48588 9.55283 1349 ft 115 kts 97°
2026-04-18 10:43 47.48493 9.56199 1334 ft 60 kts 99°
2026-04-18 10:43 47.48450 9.56604 1333 ft 29 kts 99°
2026-04-18 10:43 47.48418 9.56888 1335 ft 24 kts 97°
2026-04-18 10:44 47.48408 9.57019 1337 ft 8 kts 96°
2026-04-18 10:44 47.48426 9.57064 1337 ft 5 kts 21°
2026-04-18 10:44 47.48469 9.57071 1336 ft 7 kts
2026-04-18 10:44 47.48517 9.57082 1335 ft 7 kts
2026-04-18 10:45 47.48554 9.57052 1335 ft 6 kts 294°
2026-04-18 10:45 47.48563 9.56987 1335 ft 7 kts 278°
2026-04-18 10:45 47.48570 9.56911 1335 ft 8 kts 278°
2026-04-18 10:45 47.48579 9.56824 1336 ft 9 kts 278°
2026-04-18 10:46 47.48587 9.56727 1334 ft 10 kts 276°
2026-04-18 10:46 47.48597 9.56619 1334 ft 11 kts 278°
2026-04-18 10:46 47.48608 9.56502 1336 ft 12 kts 278°
2026-04-18 10:46 47.48621 9.56377 1336 ft 12 kts 282°
2026-04-18 10:47 47.48637 9.56254 1336 ft 12 kts 279°
2026-04-18 10:47 47.48650 9.56132 1336 ft 12 kts 279°
2026-04-18 10:47 47.48663 9.56012 1336 ft 12 kts 278°
2026-04-18 10:47 47.48675 9.55892 1336 ft 12 kts 278°
2026-04-18 10:48 47.48688 9.55773 1338 ft 12 kts 278°
2026-04-18 10:48 47.48700 9.55655 1336 ft 11 kts 278°
2026-04-18 10:48 47.48711 9.55542 1336 ft 9 kts 278°
2026-04-18 10:48 47.48728 9.55485 1337 ft 5 kts 334°
2026-04-18 10:49 47.48755 9.55466 1337 ft 4 kts 294°
2026-04-18 10:49 47.48758 9.55441 1338 ft 3 kts 279°
2026-04-18 10:49 47.48761 9.55387 1337 ft 6 kts 262°
2026-04-18 10:49 47.48735 9.55350 1336 ft 6 kts 199°
2026-04-18 10:50 47.48707 9.55314 1336 ft 6 kts 258°
2026-04-18 10:50 47.48709 9.55245 1336 ft 7 kts 274°
2026-04-18 10:50 47.48722 9.55215 1336 ft 2 kts 351°
2026-04-18 10:50 47.48723 9.55216 1336 ft 0 kts